period_start,C,m1,H,J0,J1,J2,J3,J4,J5,JA,JB,JC,JD,JJ,JK,JN,#
2018-08-25 00:03:07,0.00,0.32,0.00,23.78,27.42,30.37,14.01,46.65,1030.28,2026.99,3300.93,2995.99,3440.98,600.01,602.39,16.20,0000 0000 0000 0000 000000
2018-08-25 00:08:08,0.00,0.32,0.00,23.78,27.42,30.35,14.04,46.70,1030.28,2026.99,3300.77,2995.99,3440.96,599.88,602.35,16.25,0000 0000 0000 0000 000000
2018-08-25 00:13:10,0.01,0.32,0.00,23.78,27.41,30.35,14.09,46.71,1030.29,2026.99,3300.19,2995.97,3440.77,600.37,602.69,16.30,0000 0000 0000 0000 000000
2018-08-25 00:18:11,0.01,0.32,0.00,23.78,27.40,30.36,14.06,46.74,1030.29,2027.00,3300.01,2995.93,3440.24,599.88,602.45,16.35,0000 0000 0000 0000 000000
2018-08-25 00:23:12,0.00,0.32,0.00,23.77,27.40,30.33,14.03,46.75,1030.29,2027.00,3300.00,2995.93,3440.04,599.97,602.56,16.40,0000 0000 0000 0000 000000
2018-08-25 00:28:13,0.01,0.32,0.00,23.77,27.40,30.33,14.08,46.79,1030.29,2027.00,3299.96,2995.48,3440.00,599.97,602.37,16.45,0000 0000 0000 0000 000000
2018-08-25 00:33:15,0.01,0.32,0.00,23.77,27.40,30.30,14.18,46.78,1030.26,2027.00,3299.43,2995.20,3439.98,600.33,602.71,16.50,0000 0000 0000 0000 000000
2018-08-25 00:38:16,0.00,0.32,0.00,23.77,27.40,30.34,14.08,46.89,1030.16,2027.00,3299.01,2995.02,3439.89,600.05,602.63,16.55,0000 0000 0000 0000 000000
2018-08-25 00:43:17,0.01,0.32,0.00,23.77,27.39,30.31,14.03,46.85,1030.22,2027.00,3298.99,2995.01,3439.27,599.70,602.26,16.60,0000 0000 0000 0000 000000
2018-08-25 00:48:19,0.00,0.32,0.00,23.77,27.38,30.32,14.13,46.92,1030.27,2027.00,3298.95,2995.00,3439.03,599.97,602.50,16.65,0000 0000 0000 0000 000000
2018-08-25 00:53:20,0.01,0.32,0.00,23.78,27.37,30.31,14.12,46.84,1030.23,2027.00,3298.62,2995.00,3439.00,600.25,602.70,16.70,0000 0000 0000 0000 000000
2018-08-25 00:58:21,0.01,0.32,0.00,23.78,27.37,30.30,14.16,46.87,1030.04,2027.01,3298.07,2995.00,3438.99,600.04,602.45,16.75,0000 0000 0000 0000 000000
2018-08-25 01:03:23,0.01,0.33,0.00,23.77,27.37,30.29,14.18,46.84,1030.02,2027.01,3297.99,2994.99,3438.81,600.14,602.35,16.80,0000 0000 0000 0000 000000
2018-08-25 01:08:24,0.01,0.33,0.00,23.77,27.37,30.28,14.10,46.80,1030.10,2027.01,3297.92,2994.98,3438.19,599.89,602.20,16.85,0000 0000 0000 0000 000000
2018-08-25 01:13:25,0.01,0.33,0.00,23.77,27.37,30.29,14.04,46.90,1030.04,2027.02,3297.50,2994.96,3438.01,600.11,602.31,16.90,0000 0000 0000 0000 000000
2018-08-25 01:18:26,0.01,0.33,0.00,23.77,27.37,30.31,14.17,46.95,1029.98,2027.03,3297.03,2994.77,3438.00,600.23,602.59,16.95,0000 0000 0000 0000 000000
2018-08-25 01:23:27,0.02,0.33,0.00,23.77,27.37,30.31,14.00,46.88,1030.02,2027.02,3296.89,2994.27,3437.78,599.56,601.91,17.00,0000 0000 0000 0000 000000
2018-08-25 01:28:29,0.02,0.33,0.00,23.77,27.37,30.28,14.06,46.92,1030.00,2027.03,3296.22,2994.02,3437.09,599.89,602.20,17.05,0000 0000 0000 0000 000000
2018-08-25 01:33:30,0.00,0.33,0.00,23.77,27.37,30.29,14.05,46.93,1029.88,2027.03,3296.01,2994.00,3437.00,599.92,602.24,17.10,0000 0000 0000 0000 000000
2018-08-25 01:38:31,0.02,0.33,0.00,23.77,27.36,30.30,14.09,46.82,1029.82,2027.03,3295.56,2993.99,3436.81,600.22,602.34,17.15,0000 0000 0000 0000 000000
2018-08-25 01:43:33,0.01,0.33,0.00,23.76,27.36,30.29,14.07,46.86,1029.81,2027.06,3295.02,2993.95,3436.12,600.36,602.46,17.20,0000 0000 0000 0000 000000
2018-08-25 01:48:34,0.02,0.33,0.00,23.76,27.35,30.30,14.09,46.86,1029.82,2027.04,3294.81,2993.47,3436.00,599.97,602.19,17.25,0000 0000 0000 0000 000000
2018-08-25 01:53:35,0.02,0.33,0.00,23.77,27.35,30.30,14.12,46.92,1029.84,2027.02,3294.08,2993.05,3435.58,600.31,602.48,17.30,0000 0000 0000 0000 000000
2018-08-25 01:58:37,0.01,0.33,0.00,23.76,27.35,30.30,14.10,47.03,1029.85,2027.02,3293.69,2993.00,3435.01,599.94,602.20,17.35,0000 0000 0000 0000 000000
2018-08-25 02:03:38,0.02,0.33,0.00,23.77,27.35,30.26,13.99,46.88,1029.82,2027.00,3293.02,2992.85,3434.63,599.94,602.19,17.40,0000 0000 0000 0000 000000
2018-08-25 02:08:39,0.03,0.34,0.00,23.77,27.35,30.27,14.10,46.92,1029.82,2027.01,3292.54,2992.14,3434.02,600.06,602.33,17.45,0000 0000 0000 0000 000000
2018-08-25 02:13:40,0.00,0.34,0.00,23.77,27.35,30.26,14.12,46.98,1029.82,2027.00,3292.01,2992.00,3433.90,600.04,602.14,17.50,0000 0000 0000 0000 000000
2018-08-25 02:18:41,0.02,0.34,0.00,23.77,27.35,30.27,14.05,46.98,1029.82,2027.00,3291.58,2991.99,3433.16,600.32,602.52,17.56,0000 0000 0000 0000 000000
2018-08-25 02:23:43,0.00,0.34,0.00,23.77,27.35,30.26,14.03,47.02,1029.81,2027.00,3291.02,2991.93,3433.00,600.19,602.42,17.61,0000 0000 0000 0000 000000
2018-08-25 02:28:44,0.02,0.34,0.00,23.77,27.35,30.26,14.01,46.97,1029.80,2027.01,3290.80,2991.50,3432.81,599.95,602.15,17.66,0000 0000 0000 0000 000000
2018-08-25 02:33:45,0.02,0.34,0.00,23.77,27.35,30.23,14.07,47.02,1029.80,2027.01,3290.06,2991.06,3432.09,599.85,602.18,17.71,0000 0000 0000 0000 000000
2018-08-25 02:38:46,0.00,0.34,0.00,23.77,27.35,30.27,14.01,46.99,1029.80,2027.00,3289.89,2991.00,3432.00,599.54,601.67,17.76,0000 0000 0000 0000 000000
2018-08-25 02:43:48,0.01,0.34,0.00,23.78,27.35,30.25,14.03,46.99,1029.80,2027.00,3289.16,2990.98,3431.78,599.84,601.88,17.81,0000 0000 0000 0000 000000
2018-08-25 02:48:48,0.01,0.34,0.00,23.77,27.35,30.25,14.09,47.00,1029.81,2027.02,3288.98,2990.83,3431.15,600.14,602.35,17.86,0000 0000 0000 0000 000000
2018-08-25 02:53:50,0.03,0.35,0.00,23.77,27.35,30.25,14.08,47.07,1029.80,2027.01,3288.26,2990.17,3430.97,600.12,602.28,17.91,0000 0000 0000 0000 000000
2018-08-25 02:58:51,0.01,0.35,0.00,23.78,27.35,30.24,14.09,47.03,1029.80,2027.01,3287.99,2990.01,3430.45,599.80,602.06,17.96,0000 0000 0000 0000 000000
2018-08-25 03:03:52,0.01,0.35,0.00,23.78,27.35,30.25,14.04,47.06,1029.80,2027.00,3287.56,2990.00,3430.01,599.64,601.82,18.01,0000 0000 0000 0000 000000
2018-08-25 03:08:53,0.00,0.35,0.00,23.79,27.35,30.26,14.08,47.09,1029.80,2027.00,3287.03,2989.99,3429.98,600.14,602.27,18.06,0000 0000 0000 0000 000000
2018-08-25 03:13:54,0.01,0.35,0.00,23.79,27.35,30.27,14.08,47.11,1029.80,2027.00,3286.96,2989.87,3429.56,599.78,602.03,18.11,0000 0000 0000 0000 000000
2018-08-25 03:18:55,0.03,0.35,0.00,23.80,27.35,30.24,14.12,47.20,1029.80,2027.00,3286.36,2989.45,3429.05,600.18,602.23,18.16,0000 0000 0000 0000 000000
2018-08-25 03:23:56,0.00,0.35,0.00,23.80,27.35,30.24,14.05,47.09,1029.78,2027.00,3286.00,2989.05,3428.99,600.16,602.34,18.21,0000 0000 0000 0000 000000
2018-08-25 03:28:57,0.01,0.35,0.00,23.80,27.35,30.22,14.07,47.05,1029.74,2027.00,3285.85,2989.00,3428.81,599.60,601.67,18.26,0000 0000 0000 0000 000000
2018-08-25 03:33:59,0.01,0.35,0.00,23.82,27.35,30.24,14.12,47.04,1029.70,2027.00,3285.20,2989.00,3428.26,600.09,602.10,18.31,0000 0000 0000 0000 000000
2018-08-25 03:39:00,0.00,0.35,0.00,23.82,27.35,30.22,14.12,46.98,1029.67,2027.00,3285.00,2988.99,3428.01,600.12,602.05,18.36,0000 0000 0000 0000 000000
2018-08-25 03:44:01,0.00,0.35,0.00,23.82,27.36,30.24,14.06,47.08,1029.73,2027.01,3284.93,2988.97,3427.99,600.19,602.17,18.41,0000 0000 0000 0000 000000
2018-08-25 03:49:02,0.03,0.35,0.00,23.82,27.36,30.21,14.12,47.08,1029.73,2027.00,3284.19,2988.82,3427.55,600.45,602.53,18.46,0000 0000 0000 0000 000000
2018-08-25 03:54:04,0.02,0.35,0.00,23.82,27.36,30.23,14.04,47.01,1029.78,2027.00,3284.00,2988.33,3427.05,600.15,602.18,18.51,0000 0000 0000 0000 000000
2018-08-25 03:59:05,0.00,0.36,0.00,23.82,27.37,30.24,14.12,47.02,1029.77,2027.00,3283.99,2988.06,3427.00,600.25,602.26,18.56,0000 0000 0000 0000 000000
2018-08-25 04:04:06,0.01,0.36,0.00,23.82,27.37,30.23,14.13,47.03,1029.75,2027.00,3283.54,2988.04,3426.98,600.12,602.31,18.61,0000 0000 0000 0000 000000
2018-08-25 04:09:07,0.00,0.36,0.00,23.83,27.37,30.23,14.06,47.03,1029.73,2027.00,3283.03,2988.00,3426.75,599.98,601.95,18.66,0000 0000 0000 0000 000000
2018-08-25 04:14:08,0.00,0.36,0.00,23.84,27.37,30.26,14.05,47.08,1029.73,2027.00,3282.99,2988.00,3426.11,599.94,601.94,18.71,0000 0000 0000 0000 000000
2018-08-25 04:19:09,0.00,0.36,0.00,23.84,27.37,30.22,13.98,46.98,1029.67,2027.00,3282.74,2987.98,3426.00,599.52,601.45,18.76,0000 0000 0000 0000 000000
2018-08-25 04:24:10,0.01,0.36,0.00,23.84,27.37,30.25,14.02,47.13,1029.35,2027.00,3282.04,2987.96,3425.95,599.68,601.45,18.81,0000 0000 0000 0000 000000
2018-08-25 04:29:12,0.01,0.36,0.00,23.85,27.37,30.26,14.00,47.02,1029.34,2027.00,3282.00,2987.85,3425.68,599.78,601.51,18.86,0000 0000 0000 0000 000000
2018-08-25 04:34:13,0.03,0.36,0.00,23.85,27.37,30.24,13.99,46.97,1029.33,2027.00,3281.79,2987.24,3425.05,599.55,601.27,18.91,0000 0000 0000 0000 000000
2018-08-25 04:39:14,0.01,0.36,0.00,23.85,27.38,30.23,14.14,46.95,1029.33,2027.00,3281.12,2987.02,3424.99,600.51,602.27,18.96,0000 0000 0000 0000 000000
2018-08-25 04:44:16,0.00,0.36,0.00,23.87,27.38,30.21,14.11,47.03,1029.32,2027.00,3281.00,2987.00,3424.91,600.11,601.78,19.01,0000 0000 0000 0000 000000
2018-08-25 04:49:17,0.01,0.36,0.00,23.86,27.39,30.24,14.04,47.07,1029.32,2027.00,3280.91,2987.00,3424.29,599.79,601.64,19.06,0000 0000 0000 0000 000000
2018-08-25 04:54:18,0.01,0.36,0.00,23.87,27.39,30.25,14.01,47.15,1029.32,2027.00,3280.21,2986.99,3424.01,599.68,601.40,19.11,0000 0000 0000 0000 000000
2018-08-25 04:59:19,0.00,0.36,0.00,23.87,27.40,30.24,14.03,46.97,1029.31,2027.00,3280.00,2986.98,3424.00,599.66,601.42,19.16,0000 0000 0000 0000 000000
2018-08-25 05:04:20,0.00,0.36,0.00,23.87,27.40,30.20,14.12,47.08,1029.32,2027.00,3279.97,2986.91,3423.92,600.24,601.90,19.21,0000 0000 0000 0000 000000
2018-08-25 05:09:22,0.02,0.36,0.00,23.87,27.40,30.22,14.05,47.00,1029.32,2027.00,3279.67,2986.67,3423.28,600.19,601.90,19.26,0000 0000 0000 0000 000000
2018-08-25 05:14:23,0.02,0.36,0.00,23.88,27.40,30.23,14.09,46.98,1029.31,2027.00,3279.08,2986.18,3423.02,600.36,601.98,19.31,0000 0000 0000 0000 000000
2018-08-25 05:19:24,0.00,0.37,0.00,23.90,27.40,30.21,14.08,46.99,1029.31,2027.00,3279.00,2986.04,3423.00,600.09,601.68,19.36,0000 0000 0000 0000 000000
2018-08-25 05:24:25,0.00,0.37,0.00,23.90,27.40,30.24,14.00,46.92,1029.31,2027.00,3278.92,2986.01,3422.86,600.04,601.66,19.41,0000 0000 0000 0000 000000
2018-08-25 05:29:26,0.02,0.37,0.00,23.90,27.40,30.28,14.01,46.95,1029.31,2027.00,3278.36,2986.00,3422.22,600.15,601.64,19.46,0000 0000 0000 0000 000000
2018-08-25 05:34:28,0.00,0.37,0.00,23.90,27.41,30.23,14.05,47.02,1029.31,2027.00,3278.02,2985.99,3422.01,599.69,601.41,19.51,0000 0000 0000 0000 000000
2018-08-25 05:39:29,0.00,0.37,0.00,23.90,27.42,30.26,14.04,47.05,1029.31,2027.00,3277.89,2985.97,3421.94,599.98,601.67,19.56,0000 0000 0000 0000 000000
2018-08-25 05:44:30,0.04,0.37,0.00,23.91,27.42,30.30,14.12,47.11,1029.31,2027.00,3277.18,2985.58,3421.32,600.01,601.59,19.61,0000 0000 0000 0000 000000
2018-08-25 05:49:32,0.01,0.37,0.00,23.91,27.42,30.25,14.10,47.05,1029.31,2026.99,3277.00,2985.10,3421.01,600.12,601.61,19.66,0000 0000 0000 0000 000000
2018-08-25 05:54:33,0.00,0.37,0.00,23.92,27.42,30.24,13.97,47.09,1029.30,2026.99,3276.81,2985.01,3420.99,599.75,601.40,19.71,0000 0000 0000 0000 000000
2018-08-25 05:59:35,0.02,0.37,0.00,23.92,27.42,30.22,14.10,47.10,1029.23,2026.99,3276.09,2985.00,3420.54,599.95,601.50,19.76,0000 0000 0000 0000 000000
2018-08-25 06:04:36,0.00,0.37,0.00,23.92,27.43,30.28,14.10,47.09,1029.20,2026.99,3276.00,2985.00,3420.02,600.40,601.88,19.81,0000 0000 0000 0000 000000
2018-08-25 06:09:37,0.00,0.37,0.00,23.92,27.44,30.30,14.08,47.08,1029.21,2026.99,3275.78,2984.96,3420.00,599.79,601.35,19.86,0000 0000 0000 0000 000000
2018-08-25 06:14:38,0.03,0.37,0.00,23.92,27.45,30.29,14.04,47.07,1029.25,2026.99,3275.06,2984.61,3419.74,599.98,601.55,19.91,0000 0000 0000 0000 000000
2018-08-25 06:19:40,0.02,0.37,0.00,23.92,27.45,30.33,14.05,47.10,1029.28,2026.98,3274.96,2984.06,3419.04,600.07,601.73,19.96,0000 0000 0000 0000 000000
2018-08-25 06:24:41,0.01,0.37,0.00,23.93,27.45,30.31,14.02,47.09,1029.30,2026.98,3274.41,2984.01,3418.99,599.78,601.40,20.01,0000 0000 0000 0000 000000
2018-08-25 06:29:42,0.00,0.38,0.00,23.95,27.45,30.31,14.01,47.05,1029.30,2026.97,3274.01,2983.99,3418.70,600.13,601.62,20.06,0000 0000 0000 0000 000000
2018-08-25 06:34:43,0.01,0.38,0.00,23.94,27.45,30.34,14.11,47.13,1029.24,2026.96,3273.78,2983.95,3418.04,600.02,601.54,20.11,0000 0000 0000 0000 000000
2018-08-25 06:39:45,0.01,0.38,0.00,23.94,27.45,30.34,14.02,47.11,1029.22,2026.97,3273.07,2983.66,3417.99,599.90,601.46,20.16,0000 0000 0000 0000 000000
2018-08-25 06:44:46,0.02,0.38,0.00,23.95,27.45,30.29,14.10,47.09,1029.12,2026.96,3272.99,2983.09,3417.69,600.31,601.81,20.21,0000 0000 0000 0000 000000
2018-08-25 06:49:47,0.01,0.38,0.00,23.95,27.46,30.33,14.00,47.07,1029.01,2026.94,3272.55,2983.01,3417.06,599.94,601.35,20.26,0000 0000 0000 0000 000000
2018-08-25 06:54:48,0.00,0.38,0.00,23.96,27.47,30.26,14.00,47.10,1029.03,2026.95,3272.03,2983.00,3417.00,599.97,601.29,20.31,0000 0000 0000 0000 000000
2018-08-25 06:59:50,0.00,0.38,0.00,23.97,27.47,30.34,13.97,47.02,1029.03,2026.95,3271.96,2982.99,3416.88,599.97,601.33,20.36,0000 0000 0000 0000 000000
2018-08-25 07:04:51,0.01,0.38,0.00,23.96,27.47,30.31,14.08,46.92,1029.18,2026.94,3271.53,2982.93,3416.21,600.01,601.36,20.41,0000 0000 0000 0000 000000
2018-08-25 07:09:53,0.02,0.38,0.00,23.96,27.47,30.31,14.09,47.08,1029.17,2026.98,3271.05,2982.52,3416.02,600.10,601.52,20.46,0000 0000 0000 0000 000000
2018-08-25 07:14:54,0.01,0.38,0.00,23.97,27.47,30.33,14.01,47.07,1029.22,2026.96,3270.98,2982.08,3415.99,599.98,601.44,20.51,0000 0000 0000 0000 000000
2018-08-25 07:19:55,0.01,0.38,0.00,23.97,27.47,30.32,14.05,47.00,1029.19,2026.94,3270.59,2982.01,3415.79,600.02,601.44,20.56,0000 0000 0000 0000 000000
2018-08-25 07:24:56,0.01,0.38,0.00,23.97,27.47,30.31,14.06,47.06,1028.95,2026.95,3270.06,2982.00,3415.23,599.79,601.10,20.61,0000 0000 0000 0000 000000
2018-08-25 07:29:57,-0.01,0.38,0.00,23.97,27.47,30.34,14.05,47.02,1028.87,2026.91,3270.00,2982.00,3415.02,600.17,601.40,20.66,0000 0000 0000 0000 000000
2018-08-25 07:34:58,0.01,0.38,0.00,23.97,27.48,30.33,14.01,47.05,1028.85,2026.92,3269.88,2981.97,3414.99,599.76,601.04,20.71,0000 0000 0000 0000 000000
2018-08-25 07:40:00,0.01,0.38,0.00,23.98,27.49,30.32,14.14,47.08,1028.84,2026.88,3269.20,2981.85,3414.79,600.39,601.66,20.76,0000 0000 0000 0000 000000
2018-08-25 07:45:01,0.01,0.39,0.00,24.00,27.50,30.35,14.04,47.11,1028.84,2026.85,3269.01,2981.44,3414.17,599.94,600.97,20.81,0000 0000 0000 0000 000000
2018-08-25 07:50:02,0.02,0.39,0.00,23.99,27.50,30.34,14.03,47.00,1028.85,2026.89,3268.98,2981.16,3414.01,599.86,601.22,20.87,0000 0000 0000 0000 000000
2018-08-25 07:55:04,-0.01,0.39,0.00,23.99,27.50,30.37,14.01,47.13,1028.84,2026.82,3268.67,2981.02,3414.00,600.23,601.38,20.92,0000 0000 0000 0000 000000
2018-08-25 08:00:05,0.02,0.39,0.00,23.98,27.50,30.34,14.11,47.11,1028.85,2026.82,3268.10,2981.00,3413.92,599.99,601.25,20.97,0000 0000 0000 0000 000000
2018-08-25 08:05:06,0.00,0.39,0.00,23.98,27.50,30.35,13.98,47.17,1028.85,2026.76,3268.00,2981.00,3413.44,599.88,601.22,21.02,0000 0000 0000 0000 000000
2018-08-25 08:10:07,-0.00,0.39,0.00,23.99,27.50,30.40,14.07,47.09,1028.86,2026.66,3267.99,2981.00,3413.02,600.49,601.73,21.07,0000 0000 0000 0000 000000
2018-08-25 08:15:08,0.02,0.39,0.00,23.99,27.50,30.38,14.07,47.16,1028.94,2026.74,3267.51,2980.97,3413.00,599.49,600.63,21.12,0000 0000 0000 0000 000000
2018-08-25 08:20:09,0.00,0.39,0.00,23.99,27.50,30.35,14.03,46.96,1028.88,2026.76,3267.02,2980.86,3412.96,600.04,601.17,21.17,0000 0000 0000 0000 000000
2018-08-25 08:25:10,0.01,0.39,0.00,23.99,27.50,30.38,14.01,47.05,1028.99,2026.45,3266.99,2980.24,3412.32,599.91,601.25,21.22,0000 0000 0000 0000 000000
2018-08-25 08:30:11,0.03,0.39,0.00,23.98,27.50,30.39,14.06,47.18,1028.99,2026.66,3266.94,2980.06,3412.04,599.80,601.16,21.27,0000 0000 0000 0000 000000
2018-08-25 08:35:13,0.01,0.39,0.00,23.97,27.50,30.39,13.99,47.08,1028.91,2026.66,3266.35,2980.01,3412.00,599.61,600.84,21.32,0000 0000 0000 0000 000000
2018-08-25 08:40:14,-0.01,0.39,0.00,23.97,27.50,30.38,14.06,47.17,1028.88,2026.54,3266.03,2980.01,3412.00,599.83,601.07,21.37,0000 0000 0000 0000 000000
2018-08-25 08:45:16,-0.01,0.39,0.00,23.97,27.50,30.37,14.04,47.07,1028.85,2026.47,3265.99,2980.00,3411.88,600.01,601.34,21.42,0000 0000 0000 0000 000000
2018-08-25 08:50:17,0.02,0.39,0.00,23.97,27.50,30.39,14.04,47.02,1028.84,2026.36,3265.90,2979.99,3411.30,599.92,601.14,21.47,0000 0000 0000 0000 000000
2018-08-25 08:55:18,-0.01,0.39,0.00,23.97,27.50,30.42,14.09,47.12,1028.84,2026.27,3265.29,2979.97,3411.03,600.30,601.54,21.52,0000 0000 0000 0000 000000
2018-08-25 09:00:20,-0.00,0.39,0.00,23.97,27.50,30.40,14.05,47.18,1028.85,2026.22,3265.05,2979.94,3411.00,599.95,601.30,21.57,0000 0000 0000 0000 000000
2018-08-25 09:05:21,0.00,0.39,0.00,23.97,27.50,30.39,14.08,47.13,1028.84,2026.16,3265.00,2979.71,3410.99,600.37,601.61,21.62,0000 0000 0000 0000 000000
2018-08-25 09:10:22,0.01,0.39,0.00,23.97,27.50,30.37,14.11,47.02,1028.87,2026.15,3264.98,2979.29,3410.96,600.33,601.65,21.67,0000 0000 0000 0000 000000
2018-08-25 09:15:23,0.01,0.39,0.00,23.97,27.50,30.40,14.07,47.08,1028.87,2026.12,3264.96,2979.10,3410.62,600.20,601.38,21.72,0000 0000 0000 0000 000000
2018-08-25 09:20:25,0.01,0.39,0.00,23.97,27.50,30.38,14.03,47.11,1028.86,2026.11,3264.76,2979.04,3410.17,599.74,601.11,21.77,0000 0000 0000 0000 000000
2018-08-25 09:25:26,0.01,0.39,0.00,23.97,27.50,30.39,14.00,47.13,1028.84,2026.11,3264.21,2979.01,3410.03,599.76,600.98,21.82,0000 0000 0000 0000 000000
2018-08-25 09:30:27,0.00,0.39,0.00,23.97,27.50,30.40,14.01,47.11,1028.85,2026.09,3264.02,2979.00,3410.00,600.07,601.43,21.87,0000 0000 0000 0000 000000
2018-08-25 09:35:28,-0.01,0.39,0.00,23.95,27.50,30.40,14.07,47.26,1028.86,2026.06,3264.00,2979.00,3410.00,600.04,601.27,21.92,0000 0000 0000 0000 000000
2018-08-25 09:40:29,0.00,0.39,0.00,23.95,27.50,30.37,14.04,47.11,1028.85,2026.03,3263.99,2978.99,3409.97,600.00,601.22,21.97,0000 0000 0000 0000 000000
2018-08-25 09:45:30,0.00,0.39,0.00,23.95,27.50,30.39,14.01,47.14,1028.87,2026.03,3263.97,2978.99,3409.94,599.67,600.99,22.02,0000 0000 0000 0000 000000
2018-08-25 09:50:31,0.02,0.39,0.00,23.95,27.50,30.39,14.09,47.08,1028.89,2026.07,3263.54,2978.98,3409.61,600.15,601.44,22.07,0000 0000 0000 0000 000000
2018-08-25 09:55:32,0.00,0.39,0.00,23.95,27.50,30.40,13.99,47.13,1028.95,2026.03,3263.07,2978.94,3409.12,599.71,601.05,22.12,0000 0000 0000 0000 000000
2018-08-25 10:00:34,0.00,0.39,0.00,23.94,27.50,30.40,14.08,47.11,1028.91,2026.05,3263.01,2978.89,3409.03,600.10,601.43,22.17,0000 0000 0000 0000 000000
2018-08-25 10:05:35,0.01,0.39,0.00,23.92,27.50,30.44,14.03,47.05,1028.86,2026.08,3263.00,2978.75,3409.00,599.90,601.30,22.22,0000 0000 0000 0000 000000
2018-08-25 10:10:36,0.01,0.40,0.00,23.92,27.50,30.40,14.03,47.06,1028.86,2026.10,3263.00,2978.40,3409.00,600.02,601.37,22.27,0000 0000 0000 0000 000000
2018-08-25 10:15:37,0.01,0.40,0.00,23.92,27.50,30.43,14.10,47.11,1028.85,2026.12,3262.95,2978.13,3408.98,600.24,601.62,22.32,0000 0000 0000 0000 000000
2018-08-25 10:20:38,0.02,0.40,0.00,23.92,27.49,30.40,14.07,47.13,1028.84,2026.20,3262.48,2978.05,3408.90,600.23,601.50,22.37,0000 0000 0000 0000 000000
2018-08-25 10:25:40,0.02,0.40,0.00,23.92,27.49,30.41,14.04,47.13,1028.83,2026.16,3262.03,2978.00,3408.42,599.90,601.14,22.42,0000 0000 0000 0000 000000
2018-08-25 10:30:41,-0.00,0.40,0.00,23.90,27.48,30.40,14.01,47.08,1028.84,2026.16,3262.01,2978.00,3408.13,600.08,601.35,22.47,0000 0000 0000 0000 000000
2018-08-25 10:35:42,0.01,0.40,0.00,23.90,27.47,30.42,14.10,47.12,1028.84,2026.25,3262.00,2978.00,3408.06,599.58,601.04,22.52,0000 0000 0000 0000 000000
2018-08-25 10:40:44,0.00,0.40,0.00,23.90,27.47,30.40,14.06,47.18,1028.84,2026.32,3262.00,2978.00,3408.03,600.45,601.87,22.57,0000 0000 0000 0000 000000
2018-08-25 10:45:45,-0.01,0.40,0.00,23.90,27.47,30.40,14.06,47.12,1028.84,2026.13,3261.97,2978.00,3408.00,600.12,601.45,22.62,0000 0000 0000 0000 000000
2018-08-25 10:50:46,0.01,0.40,0.00,23.88,27.47,30.38,14.09,47.07,1028.84,2026.17,3261.90,2977.99,3408.00,600.56,601.93,22.67,0000 0000 0000 0000 000000
2018-08-25 10:55:47,0.03,0.40,0.00,23.87,27.47,30.39,13.99,47.15,1028.83,2026.29,3261.42,2977.98,3408.00,599.68,600.96,22.72,0000 0000 0000 0000 000000
2018-08-25 11:00:48,0.00,0.40,0.00,23.87,27.46,30.37,14.03,47.14,1028.83,2026.35,3261.09,2977.98,3407.97,599.67,601.16,22.77,0000 0000 0000 0000 000000
2018-08-25 11:05:50,0.02,0.40,0.00,23.86,27.45,30.38,14.05,47.03,1028.83,2026.51,3261.01,2977.97,3407.94,600.14,601.58,22.82,0000 0000 0000 0000 000000
2018-08-25 11:10:51,0.02,0.40,0.00,23.85,27.45,30.37,14.08,47.10,1028.83,2026.75,3261.00,2977.97,3407.66,600.39,601.89,22.87,0000 0000 0000 0000 000000
2018-08-25 11:15:52,0.01,0.40,0.00,23.85,27.45,30.39,14.07,47.08,1028.83,2026.78,3260.97,2977.82,3407.20,599.99,601.32,22.92,0000 0000 0000 0000 000000
2018-08-25 11:20:53,0.01,0.40,0.00,23.84,27.45,30.37,14.05,47.11,1028.83,2026.80,3260.81,2977.61,3407.04,600.27,601.73,22.97,0000 0000 0000 0000 000000
2018-08-25 11:25:55,0.01,0.40,0.00,23.82,27.45,30.37,14.05,47.10,1028.83,2026.85,3260.50,2977.40,3407.00,599.91,601.60,23.02,0000 0000 0000 0000 000000
2018-08-25 11:30:56,-0.00,0.40,0.00,23.82,27.43,30.37,14.04,47.13,1028.83,2026.82,3260.18,2977.28,3407.00,599.96,601.57,23.07,0000 0000 0000 0000 000000
2018-08-25 11:35:57,0.01,0.40,0.00,23.80,27.42,30.36,14.03,47.02,1028.83,2026.86,3260.01,2977.12,3407.00,600.19,601.73,23.12,0000 0000 0000 0000 000000
2018-08-25 11:40:58,0.01,0.41,0.00,23.80,27.42,30.35,14.05,47.07,1028.83,2026.94,3260.00,2977.04,3406.96,599.83,601.35,23.17,0000 0000 0000 0000 000000
2018-08-25 11:45:59,0.00,0.41,0.00,23.79,27.42,30.34,14.10,47.07,1028.82,2026.97,3260.00,2977.02,3406.94,600.07,601.67,23.22,0000 0000 0000 0000 000000
2018-08-25 11:51:00,0.01,0.41,0.00,23.79,27.42,30.36,14.07,47.07,1028.79,2026.97,3259.94,2977.02,3406.66,599.98,601.44,23.27,0000 0000 0000 0000 000000
2018-08-25 11:56:01,0.00,0.41,0.00,23.77,27.40,30.38,14.13,47.17,1028.73,2026.98,3259.76,2977.02,3406.43,599.87,601.44,23.32,0000 0000 0000 0000 000000
2018-08-25 12:01:02,0.01,0.41,0.00,23.77,27.40,30.36,14.12,47.13,1028.71,2026.99,3259.11,2977.01,3406.08,600.23,601.90,23.37,0000 0000 0000 0000 000000
2018-08-25 12:06:03,0.00,0.41,0.00,23.75,27.40,30.33,14.01,47.08,1028.67,2026.99,3259.01,2977.00,3406.01,599.72,601.35,23.42,0000 0000 0000 0000 000000
2018-08-25 12:11:05,0.00,0.41,0.00,23.75,27.39,30.36,13.96,47.11,1028.58,2026.99,3259.00,2977.00,3406.00,600.06,601.71,23.47,0000 0000 0000 0000 000000
2018-08-25 12:16:06,0.00,0.41,0.00,23.73,27.38,30.39,14.08,47.14,1028.36,2026.99,3258.99,2977.00,3406.00,600.06,601.37,23.52,0000 0000 0000 0000 000000
2018-08-25 12:21:07,0.00,0.41,0.00,23.72,27.37,30.35,14.08,47.12,1028.36,2026.99,3258.98,2977.00,3405.99,600.16,601.69,23.57,0000 0000 0000 0000 000000
2018-08-25 12:26:08,0.00,0.41,0.00,23.71,27.37,30.33,14.09,47.08,1028.35,2026.99,3258.90,2977.00,3405.98,600.13,601.60,23.62,0000 0000 0000 0000 000000
2018-08-25 12:31:10,0.01,0.41,0.00,23.70,27.36,30.30,14.09,46.98,1028.34,2026.99,3258.54,2977.00,3405.98,600.14,601.67,23.67,0000 0000 0000 0000 000000
2018-08-25 12:36:11,0.00,0.41,0.00,23.70,27.35,30.34,14.11,47.04,1028.34,2026.99,3258.07,2976.99,3405.88,600.08,601.64,23.72,0000 0000 0000 0000 000000
2018-08-25 12:41:12,0.00,0.41,0.00,23.68,27.35,30.29,14.15,47.17,1028.34,2026.99,3258.02,2976.99,3405.71,600.07,601.64,23.77,0000 0000 0000 0000 000000
2018-08-25 12:46:13,0.00,0.41,0.00,23.67,27.35,30.30,14.09,47.09,1028.34,2026.99,3258.00,2976.97,3405.17,600.12,601.66,23.82,0000 0000 0000 0000 000000
2018-08-25 12:51:15,0.00,0.41,0.00,23.66,27.33,30.31,14.13,47.02,1028.32,2026.99,3258.00,2976.98,3405.06,600.39,601.94,23.87,0000 0000 0000 0000 000000
2018-08-25 12:56:16,0.00,0.41,0.00,23.65,27.32,30.29,14.09,46.98,1028.33,2026.99,3258.00,2976.98,3405.07,600.30,602.01,23.92,0000 0000 0000 0000 000000